Lapse_Rate
9.9 8.9 2.5 2.7 3.5 3.2 3.2 3.7 3.6 3.6 3.6 3.6 3.6 3.7 3.6 3.9 4.1 4.6 4.6 4.9 5.2 5.5 5.5 5.4 5.3 5.6 5.4 4.7 4.4 4.5 4.3 3.9 3.9 3.7 3.8 4.0 4.2 4.2 4.4 5.1 7.2 6.9 4.4
10.0 7.5 2.4 2.7 3.1 2.9 3.1 3.5 3.6 3.7 3.8 3.7 3.7 3.8 3.6 3.7 4.0 4.6 4.6 4.9 5.2 5.4 5.5 5.1 5.2 5.1 4.6 4.1 4.0 4.0 3.6 3.5 3.6 3.7 4.0 4.2 3.9 3.9 3.9 3.6 6.2 4.4 4.1
9.8 7.2 4.4 2.5 2.8 2.7 3.1 3.4 3.8 4.0 4.1 3.7 3.7 3.6 3.7 3.8 3.9 4.4 4.6 4.9 5.1 5.3 5.2 4.8 4.8 4.4 3.9 3.7 3.4 3.3 3.2 3.3 3.6 3.8 5.6 9.4 6.3 4.0 3.7 3.5 3.5 3.4 3.7
9.7 7.4 6.5 2.4 2.7 2.7 2.9 3.3 3.7 4.1 4.1 3.7 3.7 3.7 3.7 3.6 3.8 4.3 4.6 4.9 5.0 5.0 4.9 4.6 4.3 3.9 3.4 3.2 3.1 3.1 3.0 3.2 3.6 5.3 9.2 9.6 8.3 3.7 3.7 3.7 3.7 3.7 3.7
9.9 8.4 6.8 2.5 2.6 2.8 3.0 2.9 3.5 3.8 3.9 3.7 3.6 3.6 3.6 3.5 3.6 3.9 4.4 4.6 4.7 4.6 4.7 4.6 4.1 3.4 2.9 3.0 3.0 2.9 2.9 3.1 4.0 6.1 9.7 9.6 9.5 4.4 4.4 4.0 3.9 3.9 3.9
9.9 9.4 3.1 2.5 2.6 2.7 3.1 3.1 3.1 3.3 3.4 3.5 3.4 3.6 3.4 3.5 3.4 3.7 3.9 4.1 4.1 4.3 4.4 4.1 3.4 2.8 3.0 3.2 3.3 3.2 3.2 3.6 4.8 9.8 9.6 7.3 9.6 3.9 4.1 3.8 4.2 3.8 3.9
9.9 9.5 5.0 2.6 2.8 2.8 3.0 3.1 2.9 3.1 3.1 3.2 3.3 3.3 3.4 3.0 2.9 3.2 3.5 3.7 3.9 3.9 3.7 3.2 2.7 3.0 3.2 3.1 3.0 3.0 2.9 3.7 8.1 9.8 9.6 9.2 7.4 4.4 4.1 3.8 3.8 3.8 3.7
9.8 8.9 6.3 2.9 2.9 3.0 2.9 2.9 2.8 2.9 3.0 3.0 3.1 2.9 3.0 2.9 2.8 3.0 3.2 3.5 3.5 3.4 3.2 3.0 3.0 3.1 3.0 3.1 3.2 3.2 3.2 3.6 8.6 9.7 9.7 9.6 4.4 4.2 4.4 4.0 3.5 3.4 3.4
9.7 8.0 6.4 5.6 4.6 3.0 3.0 2.9 2.8 2.8 2.9 2.9 3.0 2.8 2.7 2.8 2.9 2.8 2.9 3.1 3.1 2.9 2.9 3.0 3.3 3.4 3.5 3.6 3.4 3.3 3.5 4.3 9.3 9.8 9.7 9.6 4.5 3.8 4.3 3.9 3.6 3.4 3.4
9.6 9.0 6.5 6.3 6.0 6.0 5.3 3.0 2.9 2.8 2.8 2.9 3.0 2.9 2.7 2.8 2.7 2.7 2.7 2.8 2.8 2.8 3.0 3.2 3.5 3.7 3.7 3.6 3.5 3.6 4.0 4.7 9.6 9.7 9.7 9.5 5.0 3.8 4.2 3.9 3.6 3.3 3.3
9.4 8.9 7.2 6.8 6.6 6.6 6.7 5.1 3.1 2.9 2.9 2.8 3.2 3.0 3.2 6.0 4.9 3.7 5.0 3.0 2.7 2.9 3.2 3.5 3.6 3.7 3.7 3.6 3.5 3.6 3.9 9.4 9.7 9.8 9.8 6.0 4.7 4.0 4.4 4.4 3.9 3.5 3.3
9.0 9.3 7.9 7.1 7.6 7.4 9.2 6.9 6.3 6.2 5.9 5.8 5.6 4.9 6.7 9.0 7.3 7.3 5.5 3.0 2.8 3.1 3.3 3.5 3.6 3.6 3.7 8.7 6.9 4.3 7.4 9.7 9.5 9.8 9.8 5.7 4.2 3.8 4.3 4.2 4.0 3.8 3.6
9.4 8.9 9.3 6.2 7.2 8.5 9.7 9.3 9.2 9.3 9.2 8.4 7.7 6.1 8.8 9.0 8.7 8.5 7.4 5.1 5.3 3.5 5.7 4.7 4.9 6.1 7.8 9.6 9.7 9.6 9.7 8.9 9.7 9.7 8.3 5.8 4.6 3.4 4.1 4.2 3.9 3.8 3.6
9.4 9.5 9.0 8.6 8.2 7.0 9.6 9.6 9.7 9.7 9.5 9.6 9.3 7.6 9.4 8.5 8.6 9.2 9.6 8.6 7.4 7.6 8.8 8.1 9.2 8.3 9.3 8.5 9.1 9.4 8.1 9.4 9.7 9.7 9.3 6.2 4.2 3.0 3.6 4.1 4.0 3.8 3.7
9.4 9.5 9.5 9.0 8.2 8.3 8.4 9.7 9.7 9.7 9.6 9.6 9.5 8.8 9.2 9.5 9.5 9.4 9.4 9.5 9.4 9.5 9.1 9.5 9.6 9.5 8.9 8.3 7.8 7.4 8.0 8.1 8.6 9.3 9.6 6.6 5.4 4.1 3.3 4.1 4.3 4.2 3.9
9.5 9.5 9.6 8.0 5.6 8.8 8.9 9.5 9.8 9.5 9.6 9.5 9.5 9.3 6.7 9.2 9.3 9.1 8.3 9.0 9.4 9.2 9.4 9.4 9.6 9.7 9.7 9.6 9.4 7.5 7.4 8.5 9.2 9.0 9.5 9.4 6.1 5.2 4.1 3.1 3.7 4.1 4.2
9.7 9.7 9.5 9.1 5.2 6.2 7.2 8.8 9.3 9.5 9.0 9.6 9.5 9.2 5.8 7.5 8.9 8.2 9.4 7.8 9.2 9.2 6.9 8.3 8.8 8.9 9.8 9.6 9.6 9.5 8.5 7.5 8.2 8.1 8.2 9.2 9.3 5.3 5.0 4.2 3.2 3.3 3.9
9.7 9.6 9.6 9.7 9.2 7.7 7.8 8.2 8.2 9.3 9.4 9.3 9.4 9.3 6.3 5.7 8.1 6.9 9.6 8.7 8.8 9.0 6.9 8.8 8.7 9.3 9.5 9.7 9.6 9.8 10.0 9.6 9.5 8.8 8.8 8.9 9.4 9.5 7.0 5.3 4.3 3.1 2.8
9.7 9.6 9.6 9.1 8.2 8.9 9.1 9.7 8.9 5.8 8.0 9.4 9.4 9.4 8.3 5.0 6.0 7.2 9.3 9.6 9.0 9.2 9.5 9.6 9.6 9.4 9.5 9.5 9.7 9.8 9.8 10.0 10.0 9.7 9.6 9.5 8.7 7.3 8.5 9.3 4.9 4.1 2.9
8.9 9.4 9.6 9.7 9.2 8.3 8.9 9.4 9.9 9.8 7.6 8.1 9.4 9.5 9.2 6.4 5.3 6.1 7.9 9.2 8.8 9.7 9.7 9.7 9.3 9.6 9.4 9.5 9.8 9.6 9.6 9.8 10.0 9.8 9.7 9.3 9.2 8.3 7.2 6.8 7.3 5.6 3.0
8.3 7.1 7.6 9.5 9.5 9.8 9.7 9.4 8.9 9.1 8.6 5.0 8.8 8.2 7.4 6.7 5.4 5.2 6.2 8.0 7.3 8.4 8.9 9.2 9.1 7.9 9.2 9.2 9.2 9.2 9.4 9.4 8.2 8.8 9.7 9.8 9.8 9.3 8.5 7.6 6.7 7.4 8.5
9.3 8.5 7.3 7.6 8.8 9.6 9.8 9.7 9.8 9.5 9.4 7.9 5.5 8.4 5.9 4.2 4.4 5.1 5.3 7.2 7.5 8.0 7.1 7.1 7.4 9.0 9.2 9.5 8.7 8.9 8.3 8.9 9.3 9.2 8.7 9.0 8.5 9.2 9.6 7.8 6.6 6.4 6.4
9.3 9.3 9.5 9.1 7.8 8.0 9.6 10.0 9.9 9.7 9.7 9.5 9.4 9.1 7.2 5.6 4.6 4.7 5.6 6.1 7.4 6.0 7.9 5.9 6.2 5.9 8.7 9.3 9.3 8.8 8.2 7.9 8.7 9.2 8.4 7.4 8.1 7.1 7.2 8.4 6.7 6.3 6.2
9.3 9.3 9.6 9.6 9.4 9.5 8.6 9.5 9.1 9.5 9.1 9.4 9.3 9.4 9.6 6.3 4.6 4.7 4.2 4.8 5.5 7.0 5.8 6.7 6.2 6.8 6.9 8.7 9.2 9.0 7.9 8.6 8.2 8.1 8.9 9.1 8.7 7.5 7.1 7.3 7.5 6.3 6.6
9.5 8.9 7.6 9.5 9.6 9.5 8.4 8.0 9.7 9.4 9.7 9.6 9.6 9.5 9.5 8.9 6.6 6.0 5.9 5.0 4.3 4.8 5.8 5.7 7.0 6.9 8.3 8.5 9.4 9.0 8.9 9.0 8.8 8.5 8.1 8.5 9.2 9.5 9.4 9.5 9.3 8.1 8.8
9.4 8.1 8.2 7.2 8.7 8.4 7.5 5.1 7.0 8.9 9.3 9.6 9.5 9.6 9.6 9.6 9.7 8.5 8.0 6.5 4.6 5.1 4.7 5.1 5.9 7.4 8.1 9.0 9.4 9.5 9.2 8.7 8.7 8.7 8.5 8.4 8.7 9.0 9.6 9.7 9.5 9.3 8.0
Wind_Speed
15 21 18 14 16 15 19 19 20 21 21 21 21 21 21 19 18 17 18 18 18 19 20 20 19 19 19 19 17 20 20 18 18 17 17 16 15 13 11 11 14 17 14
20 24 20 16 18 17 21 20 20 20 21 21 21 20 19 19 18 17 17 17 18 19 20 19 19 20 20 17 18 18 18 17 16 17 17 16 14 13 9 11 17 15 13
20 24 23 18 19 18 22 22 20 20 20 20 20 19 19 19 18 16 16 16 18 18 19 20 19 19 18 17 17 17 17 15 13 11 14 13 15 12 10 11 13 12 12
21 24 23 19 19 19 22 23 22 20 19 19 19 18 18 18 18 17 15 16 17 18 19 20 20 19 17 16 16 15 15 14 13 11 10 12 14 11 10 10 10 11 10
19 23 23 19 21 20 20 24 22 21 19 18 18 19 18 17 18 18 17 17 17 18 19 18 17 16 15 15 14 14 13 12 11 9 9 9 11 11 10 8 9 9 6
19 21 22 19 20 21 21 22 22 21 21 19 18 17 19 17 17 17 18 17 18 19 19 18 17 15 17 16 15 13 12 10 12 10 9 7 6 11 7 5 8 7 7
18 19 22 18 18 20 20 21 22 21 21 20 18 18 17 18 18 18 17 17 17 18 19 19 20 21 19 16 14 11 9 7 9 8 7 6 9 8 6 5 5 5 5
17 18 22 17 15 17 20 20 23 22 21 20 19 19 18 16 18 17 17 17 18 17 17 16 17 16 14 13 11 8 6 5 5 6 5 7 11 7 7 7 7 6 6
16 16 19 20 18 14 17 21 23 23 22 20 20 19 19 20 18 17 16 16 17 18 18 18 18 16 12 10 7 5 3 3 5 4 3 4 11 8 8 8 8 8 8
13 14 16 19 19 18 17 16 22 22 22 21 20 19 19 19 18 17 17 16 17 17 17 18 17 14 10 8 6 4 3 5 6 4 5 4 9 11 11 11 11 10 9
12 14 15 17 18 18 18 17 16 17 20 20 19 18 18 17 17 16 16 18 16 17 18 17 15 12 10 8 7 6 6 9 4 4 4 8 9 12 12 13 13 13 13
18 15 14 15 17 18 17 18 19 18 18 19 19 19 18 15 17 16 15 16 15 16 16 15 14 12 11 13 12 10 11 5 7 5 3 3 8 14 15 16 16 16 16
17 14 16 15 19 18 15 16 17 17 17 18 19 20 18 15 15 15 14 15 15 15 15 15 14 14 15 12 10 10 9 9 10 7 3 2 7 13 17 17 18 18 18
16 16 17 17 15 19 17 15 16 15 17 16 19 20 16 14 15 16 14 17 16 17 16 16 15 16 14 14 12 11 11 11 9 9 6 6 9 12 17 19 19 19 20
15 16 17 17 16 16 15 16 15 15 15 17 18 21 19 16 11 15 14 16 16 16 17 14 15 14 14 14 14 14 13 13 13 12 12 9 9 11 14 18 20 20 20
14 15 16 18 17 19 15 14 12 16 16 17 17 19 22 18 15 15 14 15 16 17 17 16 14 13 12 14 13 15 15 15 15 15 15 14 14 14 16 17 20 21 21
14 16 16 17 17 19 19 15 15 17 18 16 18 20 22 22 18 17 13 11 16 18 17 16 15 15 10 13 12 14 16 17 17 18 18 17 16 20 20 21 21 22 23
12 17 17 15 18 19 18 14 15 18 18 17 19 19 22 24 22 18 11 10 18 16 16 12 10 11 11 11 10 10 10 16 18 18 19 19 19 19 18 24 24 25 25
9 13 17 18 19 19 18 14 15 19 16 18 20 20 21 23 24 20 15 15 18 15 11 11 11 12 10 11 11 11 11 11 12 17 19 20 21 21 20 17 25 25 27
22 9 14 15 19 19 15 14 12 12 13 19 18 19 22 22 25 22 18 17 18 11 12 12 13 11 11 11 10 11 11 12 11 12 14 20 22 23 23 22 19 20 29
23 21 23 14 17 14 14 15 15 14 14 13 14 23 23 23 25 23 15 14 16 14 14 14 13 14 11 11 10 11 12 14 15 14 13 13 15 21 22 21 20 19 18
24 21 21 19 17 15 14 14 14 14 14 14 14 19 26 27 26 22 17 15 16 13 15 15 15 12 12 11 9 10 11 10 13 13 13 13 15 16 15 20 20 20 20
28 26 22 21 21 18 19 14 14 13 13 14 15 15 18 27 27 24 21 15 14 14 13 15 15 17 13 12 14 10 7 8 8 7 11 11 11 10 9 12 16 16 16
24 24 26 25 24 19 20 17 21 16 16 15 15 15 16 24 23 25 21 18 17 13 15 14 14 14 14 13 9 13 15 13 6 8 7 8 9 10 11 9 8 13 16
23 23 23 26 27 26 24 16 16 20 16 14 13 17 17 16 19 22 20 19 18 14 15 16 14 15 14 13 13 11 12 13 14 13 14 12 11 11 10 11 12 12 17
22 23 23 26 28 29 27 24 19 23 19 16 15 13 13 13 14 19 20 18 18 17 18 16 16 17 15 14 13 13 13 11 11 12 13 15 14 13 12 11 11 11 16
Wind_Direction
156 148 154 153 156 140 135 136 137 140 140 138 136 134 130 126 119 116 114 114 115 116 115 116 116 115 111 111 106 105 105 106 108 110 108 109 109 103 101 99 125 103 95
152 152 153 151 155 145 135 133 136 138 140 137 136 133 128 125 122 120 118 117 119 119 117 118 118 117 115 110 106 108 111 112 115 118 119 111 105 106 95 48 81 96 105
152 155 159 149 153 148 137 135 135 138 139 136 135 134 131 126 123 120 120 121 123 126 125 124 123 123 121 118 115 115 115 117 124 148 168 110 106 108 102 87 93 93 93
151 156 158 154 150 149 141 138 137 139 139 137 137 138 134 129 126 123 123 126 128 131 132 132 131 130 128 121 116 113 114 121 135 166 133 113 113 113 114 112 110 110 109
155 160 153 157 151 150 147 139 140 140 140 140 141 140 135 133 129 129 132 132 135 136 135 132 131 129 120 119 117 114 118 130 160 203 109 109 116 125 127 125 130 135 160
158 162 145 159 154 150 148 142 142 143 144 144 143 141 138 138 136 135 140 140 141 139 138 136 133 127 127 128 131 131 133 154 201 118 109 111 104 121 125 87 91 104 112
159 162 161 162 159 153 150 147 145 146 148 147 146 143 143 143 144 145 147 146 145 144 145 147 148 147 146 144 141 141 146 193 247 122 122 133 111 136 152 150 146 147 150
160 160 163 165 164 161 155 153 151 152 152 151 150 149 149 149 150 153 153 151 148 149 147 150 154 150 143 141 140 146 164 226 227 127 140 147 126 162 174 176 178 182 184
163 165 164 173 175 171 164 161 158 156 156 157 156 157 156 157 160 158 158 156 155 158 157 159 162 162 159 156 154 156 160 230 256 138 156 162 153 187 194 197 200 199 198
166 171 172 174 178 182 181 173 167 162 161 162 162 165 165 164 165 165 165 164 165 166 166 168 172 175 172 174 180 184 203 244 242 188 201 133 162 195 206 208 209 213 213
179 177 178 179 181 183 185 183 176 169 166 166 166 169 167 176 178 172 185 169 176 175 176 179 182 184 188 196 203 216 238 235 214 222 223 130 199 207 217 218 216 217 220
177 184 181 185 186 187 189 181 191 185 183 185 182 176 185 182 189 188 173 174 183 184 184 190 195 198 205 206 201 214 234 240 241 238 236 148 217 217 221 224 221 223 225
189 182 188 190 189 193 195 185 192 191 193 196 194 186 194 185 189 197 180 184 189 191 196 199 203 214 214 228 219 218 226 234 244 238 182 203 238 226 227 228 227 226 228
196 194 190 192 193 195 197 196 197 197 198 200 200 197 198 195 188 199 193 191 195 190 205 202 209 219 223 226 235 235 237 250 247 250 234 206 232 232 230 231 230 228 229
207 201 196 194 200 197 206 199 206 208 202 205 203 202 207 204 198 198 200 200 198 198 202 207 217 214 221 228 231 235 239 243 252 256 261 186 239 242 236 236 236 234 232
220 212 205 197 201 204 205 209 206 207 207 215 208 210 211 211 203 206 205 208 204 206 208 211 214 218 225 228 229 238 242 246 246 250 253 251 223 246 248 240 239 238 238
227 222 210 207 208 204 204 207 214 211 214 211 218 213 214 216 212 217 212 211 211 208 214 213 217 223 229 229 237 237 240 243 249 249 250 254 254 227 239 245 242 239 239
228 220 217 217 211 211 211 206 208 218 214 218 217 218 215 222 220 214 217 215 216 215 211 214 213 218 225 231 236 240 238 244 248 249 251 252 253 258 236 230 241 244 240
264 236 224 219 223 215 219 221 216 219 218 220 220 221 216 219 221 223 224 222 219 217 218 219 219 224 224 233 236 239 246 251 249 247 248 250 251 255 259 257 225 238 245
359 299 243 231 229 222 219 220 227 226 230 229 223 223 222 219 221 219 229 227 221 223 221 220 225 220 232 237 240 240 244 250 250 250 252 252 252 252 252 253 251 237 238
11 0 346 254 242 235 225 220 216 223 221 226 234 224 222 224 219 218 223 220 223 225 227 218 224 227 224 230 244 248 251 248 250 253 251 250 251 249 248 249 247 250 249
20 11 2 344 306 241 241 236 235 228 222 226 226 228 222 217 219 217 218 221 215 225 227 225 222 227 230 223 231 243 258 255 237 236 247 249 249 253 250 245 247 249 251
25 18 11 358 338 313 246 249 242 240 240 229 227 226 222 224 220 217 218 223 220 218 225 222 220 219 229 224 221 241 230 245 268 238 231 244 243 239 241 242 248 243 245
20 15 15 11 5 347 313 246 251 238 233 230 231 229 225 222 223 220 215 213 221 222 222 222 220 225 224 230 217 230 252 274 269 275 220 221 232 249 251 254 238 235 254
16 15 14 12 14 6 348 310 245 247 247 247 237 239 228 229 224 226 222 223 217 216 225 227 225 218 225 231 234 222 235 245 247 256 268 261 249 235 252 250 254 261 256
23 21 15 15 12 8 9 357 318 246 252 257 254 247 236 232 232 227 228 226 225 223 222 222 225 229 227 235 237 245 236 237 239 241 251 263 263 269 268 263 250 248 256